Weather History for Owosso, MI

Change the Weather History Date:

Thursday, December 8, 2011

  Actual Average (KFNT) Record (KFNT)
Temperature  
Mean Temperature 30 °F 30 °F  
Max Temperature 35 °F 36 °F 62 °F (1966)
Min Temperature 24 °F 23 °F -4 °F (1976)
Degree Days  
Heating Degree Days 36 35  
Month to date heating degree days 270  
Since 1 July heating degree days 1751  
Cooling Degree Days 0 0  
Month to date cooling degree days 0  
Year to date cooling degree days 531  
Moisture  
Dew Point 24 °F    
Average Humidity 78    
Maximum Humidity 86    
Minimum Humidity 64    
Precipitation  
Precipitation 0.00 in 0.06 in 0.80 in (1924)
Month to date precipitation 0.55  
Year to date precipitation 30.00  
Snow  
Snow 0.00 in 0.30 in 4.80 in (1972)
Month to date snowfall 2.5  
Since 1 July snowfall 5.4  
Snow Depth -    
Sea Level Pressure  
Sea Level Pressure 30.09 in    
Wind  
Wind Speed 9 mph (SW)    
Max Wind Speed 18 mph    
Max Gust Speed 24 mph    
Visibility 10 miles    
Events      
T = Trace of Precipitation, MM = Missing Value Source: NWS Daily Summary

Daily Weather History Graph

Daily Weather History Graph

Search for Another Location

Airport:

Trip Planner

Search our weather history database for the weather conditions in past years. The results will help you decide how hot, cold, wet, or windy it might be!

Date:

Astronomy

Dec. 08, 2011 Rise Set
Actual Time 7:54 AM EST 5:01 PM EST
Civil Twilight 7:22 AM EST 5:33 PM EST
Nautical Twilight 6:47 AM EST 6:09 PM EST
Astronomical Twilight 6:12 AM EST 6:43 PM EST
Moon 3:40 PM EST (12/8) 6:05 AM EST (12/8)
Length of Visible Light 10h 11m
Length of Day
9h 06m
Waxing Gibbous, 97% of the Moon is Illuminated
Dec 8
Waxing Gibbous
Dec 10
Full
Dec 17
Last Quarter
Dec 24
New
Jan 1
First Quarter

Hourly Weather History & Observations

Time (EST) Temp. Windchill Dew Point Humidity Pressure Visibility Wind Dir Wind Speed Gust Speed Precip Events Conditions
12:14 AM 30.2 °F 20.2 °F 23.0 °F 75% 30.00 in 10.0 mi West 12.7 mph - N/A   Overcast
12:35 AM 30.2 °F 21.9 °F 23.0 °F 75% 30.00 in 10.0 mi West 9.2 mph - N/A   Overcast
12:55 AM 30.2 °F 21.3 °F 23.0 °F 75% 30.01 in 10.0 mi West 10.4 mph - N/A   Overcast
1:35 AM 28.4 °F 20.4 °F 23.0 °F 80% 30.02 in 10.0 mi WSW 8.1 mph - N/A   Clear
1:55 AM 28.4 °F 22.2 °F 23.0 °F 80% 30.03 in 10.0 mi WSW 5.8 mph - N/A   Clear
2:35 AM 28.4 °F 21.2 °F 23.0 °F 80% 30.04 in 10.0 mi WSW 6.9 mph - N/A   Clear
2:55 AM 28.4 °F 21.2 °F 23.0 °F 80% 30.04 in 10.0 mi WSW 6.9 mph - N/A   Clear
3:15 AM 26.6 °F 20.0 °F 23.0 °F 86% 30.04 in 10.0 mi WSW 5.8 mph - N/A   Clear
3:35 AM 26.6 °F 20.0 °F 21.2 °F 80% 30.05 in 10.0 mi WSW 5.8 mph - N/A   Clear
3:55 AM 26.6 °F 20.0 °F 21.2 °F 80% 30.05 in 10.0 mi WSW 5.8 mph - N/A   Clear
4:15 AM 26.6 °F 19.1 °F 23.0 °F 86% 30.05 in 10.0 mi WSW 6.9 mph - N/A   Clear
4:35 AM 26.6 °F 19.1 °F 23.0 °F 86% 30.06 in 10.0 mi WSW 6.9 mph - N/A   Clear
4:55 AM 26.6 °F 20.0 °F 21.2 °F 80% 30.07 in 10.0 mi WSW 5.8 mph - N/A   Clear
5:15 AM 26.6 °F 21.2 °F 21.2 °F 80% 30.07 in 10.0 mi SW 4.6 mph - N/A   Clear
5:34 AM 24.8 °F 19.1 °F 21.2 °F 86% 30.07 in 10.0 mi SW 4.6 mph - N/A   Clear
5:55 AM 24.8 °F - 21.2 °F 86% 30.07 in 10.0 mi Calm Calm - N/A   Clear
6:15 AM 24.8 °F 20.5 °F 21.2 °F 86% 30.07 in 10.0 mi SSW 3.5 mph - N/A   Clear
6:34 AM 24.8 °F 17.9 °F 21.2 °F 86% 30.08 in 10.0 mi SSW 5.8 mph - N/A   Clear
6:55 AM 24.8 °F 19.1 °F 21.2 °F 86% 30.08 in 10.0 mi SSW 4.6 mph - N/A   Clear
7:15 AM 24.8 °F 16.9 °F 21.2 °F 86% 30.09 in 10.0 mi SSW 6.9 mph - N/A   Clear
7:35 AM 26.6 °F 20.0 °F 21.2 °F 80% 30.09 in 10.0 mi SW 5.8 mph - N/A   Scattered Clouds
7:55 AM 26.6 °F 19.1 °F 23.0 °F 86% 30.10 in 10.0 mi SSW 6.9 mph - N/A   Mostly Cloudy
8:15 AM 26.6 °F 17.5 °F 23.0 °F 86% 30.10 in 10.0 mi SSW 9.2 mph - N/A   Overcast
8:35 AM 28.4 °F 20.4 °F 23.0 °F 80% 30.10 in 10.0 mi SW 8.1 mph - N/A   Overcast
8:55 AM 28.4 °F 20.4 °F 23.0 °F 80% 30.10 in 10.0 mi SW 8.1 mph - N/A   Overcast
9:15 AM 30.2 °F 21.3 °F 24.8 °F 80% 30.11 in 10.0 mi SW 10.4 mph - N/A   Overcast
9:35 AM 30.2 °F 21.9 °F 24.8 °F 80% 30.11 in 10.0 mi SW 9.2 mph - N/A   Overcast
9:55 AM 32.0 °F 23.0 °F 26.6 °F 80% 30.12 in 10.0 mi SW 11.5 mph 18.4 mph N/A   Overcast
10:14 AM 32.0 °F 23.6 °F 26.6 °F 80% 30.12 in 10.0 mi SW 10.4 mph 17.3 mph N/A   Overcast
10:35 AM 32.0 °F 24.8 °F 26.6 °F 80% 30.13 in 10.0 mi SW 8.1 mph - N/A   Overcast
10:55 AM 32.0 °F 23.0 °F 26.6 °F 80% 30.13 in 10.0 mi SW 11.5 mph 17.3 mph N/A   Overcast
11:14 AM 32.0 °F 22.5 °F 26.6 °F 80% 30.13 in 10.0 mi SW 12.7 mph 18.4 mph N/A   Overcast
11:35 AM 33.8 °F 24.3 °F 26.6 °F 75% 30.12 in 10.0 mi WSW 13.8 mph 21.9 mph N/A   Overcast
11:55 AM 33.8 °F 24.8 °F 26.6 °F 75% 30.12 in 10.0 mi SW 12.7 mph 20.7 mph N/A   Overcast
12:15 PM 35.6 °F 25.2 °F 26.6 °F 70% 30.11 in 10.0 mi WSW 18.4 mph 24.2 mph N/A   Overcast
12:35 PM 33.8 °F 23.5 °F 26.6 °F 75% 30.10 in 10.0 mi WSW 16.1 mph 20.7 mph N/A   Overcast
12:55 PM 33.8 °F 24.8 °F 26.6 °F 75% 30.10 in 10.0 mi WSW 12.7 mph 18.4 mph N/A   Overcast
1:15 PM 33.8 °F 24.8 °F 26.6 °F 75% 30.09 in 10.0 mi SW 12.7 mph 20.7 mph N/A   Overcast
1:35 PM 33.8 °F 25.8 °F 26.6 °F 75% 30.09 in 10.0 mi SW 10.4 mph - N/A   Overcast
1:54 PM 33.8 °F 24.3 °F 26.6 °F 75% 30.09 in 10.0 mi West 13.8 mph 20.7 mph N/A   Overcast
2:15 PM 33.8 °F 24.3 °F 26.6 °F 75% 30.10 in 10.0 mi West 13.8 mph 19.6 mph N/A   Overcast
2:35 PM 35.6 °F 25.5 °F 26.6 °F 70% 30.10 in 10.0 mi West 17.3 mph 20.7 mph N/A   Overcast
2:54 PM 33.8 °F 25.3 °F 26.6 °F 75% 30.10 in 10.0 mi West 11.5 mph 18.4 mph N/A   Scattered Clouds
3:35 PM 33.8 °F 26.4 °F 23.0 °F 65% 30.10 in 10.0 mi SW 9.2 mph - N/A   Clear
3:55 PM 33.8 °F 25.8 °F 23.0 °F 65% 30.10 in 10.0 mi SW 10.4 mph - N/A   Clear
4:15 PM 33.8 °F 27.0 °F 23.0 °F 65% 30.10 in 10.0 mi SW 8.1 mph 16.1 mph N/A   Clear
4:35 PM 33.8 °F 25.8 °F 23.0 °F 65% 30.10 in 10.0 mi SW 10.4 mph - N/A   Clear
4:55 PM 32.0 °F 24.2 °F 21.2 °F 64% 30.11 in 10.0 mi SW 9.2 mph - N/A   Clear
5:15 PM 32.0 °F 26.4 °F 23.0 °F 69% 30.11 in 10.0 mi SW 5.8 mph - N/A   Clear
5:34 PM 32.0 °F 27.5 °F 23.0 °F 69% 30.12 in 10.0 mi SW 4.6 mph - N/A   Clear
6:34 PM 32.0 °F 27.5 °F 23.0 °F 69% 30.12 in 10.0 mi SW 4.6 mph - N/A   Scattered Clouds
6:55 PM 32.0 °F 27.5 °F 23.0 °F 69% 30.12 in 10.0 mi SW 4.6 mph - N/A   Clear
7:15 PM 30.2 °F 25.4 °F 23.0 °F 75% 30.12 in 10.0 mi SSW 4.6 mph - N/A   Clear
7:35 PM 30.2 °F 24.3 °F 24.8 °F 80% 30.12 in 10.0 mi SSW 5.8 mph - N/A   Clear
7:55 PM 32.0 °F 25.6 °F 26.6 °F 80% 30.12 in 10.0 mi SSW 6.9 mph - N/A   Clear
8:15 PM 32.0 °F 26.4 °F 26.6 °F 80% 30.12 in 10.0 mi SSW 5.8 mph - N/A   Clear
8:35 PM 30.2 °F 24.3 °F 26.6 °F 86% 30.12 in 10.0 mi SSW 5.8 mph - N/A   Clear
8:55 PM 30.2 °F 24.3 °F 26.6 °F 86% 30.12 in 10.0 mi SSW 5.8 mph - N/A   Clear
9:14 PM 30.2 °F 25.4 °F 26.6 °F 86% 30.12 in 10.0 mi SSW 4.6 mph - N/A   Clear
9:55 PM 30.2 °F 24.3 °F 26.6 °F 86% 30.12 in 10.0 mi SSW 5.8 mph - N/A   Clear
10:15 PM 30.2 °F 23.4 °F 26.6 °F 86% 30.13 in 10.0 mi SSW 6.9 mph - N/A   Scattered Clouds
10:35 PM 30.2 °F 24.3 °F 24.8 °F 80% 30.13 in 10.0 mi SSW 5.8 mph - N/A   Scattered Clouds
10:55 PM 30.2 °F 23.4 °F 24.8 °F 80% 30.13 in 10.0 mi SSW 6.9 mph - N/A   Mostly Cloudy
11:15 PM 32.0 °F 26.4 °F 24.8 °F 75% 30.13 in 10.0 mi SSW 5.8 mph - N/A   Overcast
11:35 PM 32.0 °F 27.5 °F 24.8 °F 75% 30.13 in 10.0 mi SSW 4.6 mph - N/A   Overcast
11:55 PM 32.0 °F 27.5 °F 24.8 °F 75% 30.13 in 10.0 mi SSW 4.6 mph - N/A   Overcast